TimeCST,TemperatureF,Dew PointF,Humidity,Sea Level PressureIn,VisibilityMPH,Wind Direction,Wind SpeedMPH,Gust SpeedMPH,PrecipitationIn,Events,Conditions,WindDirDegrees,DateUTC
12:58 AM,45.3,41.4,86,30.26,10.0,Calm,Calm,-,N/A,,Clear,0,2013-03-08 06:58:00
1:58 AM,45.5,40.1,81,30.26,10.0,NNW,1.2,-,N/A,,Clear,340,2013-03-08 07:58:00
2:58 AM,42.4,39.2,88,30.25,10.0,NNE,3.5,-,N/A,,Clear,30,2013-03-08 08:58:00
3:58 AM,42.1,38.5,87,30.25,10.0,Variable,2.3,-,N/A,,Clear,0,2013-03-08 09:58:00
4:58 AM,42.3,38.3,86,30.26,10.0,NNE,4.6,-,N/A,,Clear,20,2013-03-08 10:58:00
5:58 AM,41.5,38.1,88,30.28,10.0,NE,6.9,-,N/A,,Clear,40,2013-03-08 11:58:00
6:58 AM,41.7,38.5,88,30.30,10.0,NE,4.6,-,N/A,,Clear,50,2013-03-08 12:58:00
7:58 AM,46.9,39.6,76,30.31,10.0,NE,5.8,-,N/A,,Clear,40,2013-03-08 13:58:00
8:58 AM,54.7,38.8,55,30.32,10.0,NE,6.9,-,N/A,,Clear,50,2013-03-08 14:58:00
9:58 AM,59.7,38.1,45,30.31,10.0,Variable,3.5,-,N/A,,Clear,0,2013-03-08 15:58:00
10:58 AM,63.7,36.9,37,30.30,10.0,Variable,2.3,-,N/A,,Clear,0,2013-03-08 16:58:00
11:58 AM,64.4,42.1,44,30.28,10.0,SSE,6.9,-,N/A,,Clear,160,2013-03-08 17:58:00
12:58 PM,64.2,40.3,41,30.26,10.0,SSW,11.5,-,N/A,,Clear,200,2013-03-08 18:58:00
1:58 PM,64.4,40.1,41,30.24,10.0,SSW,10.4,-,N/A,,Clear,200,2013-03-08 19:58:00
2:58 PM,63.0,41.9,46,30.23,10.0,South,10.4,-,N/A,,Clear,190,2013-03-08 20:58:00
3:58 PM,61.7,44.4,53,30.22,10.0,SSW,8.1,-,N/A,,Clear,210,2013-03-08 21:58:00
4:58 PM,59.7,46.0,61,30.23,10.0,SW,8.1,-,N/A,,Clear,220,2013-03-08 22:58:00
5:58 PM,57.2,47.7,70,30.23,10.0,SW,5.8,-,N/A,,Clear,230,2013-03-08 23:58:00
6:58 PM,56.8,47.8,72,30.22,10.0,SW,3.5,-,N/A,,Overcast,220,2013-03-09 00:58:00
7:58 PM,56.7,47.8,72,30.23,10.0,SW,2.3,-,N/A,,Mostly Cloudy,230,2013-03-09 01:58:00
8:58 PM,55.6,47.7,75,30.22,10.0,WSW,1.2,-,N/A,,Mostly Cloudy,240,2013-03-09 02:58:00
9:58 PM,54.0,50.9,89,30.22,10.0,North,1.2,-,N/A,,Overcast,360,2013-03-09 03:58:00
10:58 PM,54.0,50.9,89,30.23,10.0,NW,2.3,-,N/A,,Mostly Cloudy,320,2013-03-09 04:58:00
11:58 PM,52.2,50.0,92,30.22,10.0,Calm,Calm,-,N/A,,Clear,0,2013-03-09 05:58:00